Regional Weather Roundup
Issued by NWS

Home | Current Version | Previous Version | Text Only | Print | Product List | Glossary Off
Versions: 1 2 3 4 5 6 7 8 9 10 11 12 13 14 15 16 17 18 19 20 21 22 23 24 25 26 27 28 29 30 31 32 33 34 35 36 37 38 39 40 41 42 43 44 45 46 47 48 49 50

000
ASUS43 KDMX 170101
RWRIA

WEATHER ROUNDUP FOR IOWA
NATIONAL WEATHER SERVICE DES MOINES IA
700 PM CST MON JAN 16 2017

NOTE: "FAIR" INDICATES FEW OR NO CLOUDS BELOW 12,000 FEET WITH NO
SIGNIFICANT WEATHER AND/OR OBSTRUCTIONS TO VISIBILITY.

* - THESE STATIONS ARE NOT NWS STATIONS...THUS NOT UNDER NWS
QUALITY CONTROL.  THEY ALSO DO NOT REPORT WEATHER SUCH
AS PRECIPITATION OR FOG.

IAZ001>003-012>014-020>022-031>034-043>046-170200-
   NORTHWEST IOWA

CITY           SKY/WX    TMP DP  RH WIND       PRES   REMARKS
CARROLL *      CLOUDY    34  34 100 N10       29.91S FOG     WCI  26
CHEROKEE *     MIX PCPN  32  32 100 N5        29.95S WCI  27
DENISON *      CLOUDY    32  32 100 NE8       29.90S FOG     WCI  25
LE MARS *      MIX PCPN  32  32 100 N7        29.98S WCI  26
ORANGE CITY *  MIX PCPN  32  32 100 N3        29.96R
SHELDON *      LGT RAIN  32  32 100 N8        29.95S WCI  25
SIOUX CITY     CLOUDY    34  32  92 N9        29.97R WCI  27
SPENCER        FRZ RAIN  33  31  92 NE10      29.96R WCI  25
STORM LAKE *   CLOUDY    32  32 100 NE12      29.93R WCI  23
$$

IAZ055>058-069>071-079>083-090>094-170200-
   SOUTHWEST IOWA

CITY           SKY/WX    TMP DP  RH WIND       PRES   REMARKS
ATLANTIC *     CLOUDY    34  34 100 N8        29.90R FOG     WCI  27
AUDUBON *      CLOUDY    32  30  93 N3        29.90S FOG
CLARINDA *     CLOUDY    34  34 100 N7        29.90R FOG     WCI  28
COUNCIL BLFS * CLOUDY    32  32 100 N9        29.91S FOG     WCI  24
CRESTON *      FOG       32  32 100 NE6       29.88R VSB 1/4 WCI  26
HARLAN  *      CLOUDY    32  32 100 N8        29.94R WCI  25
LAMONI         FOG       36  35  96 N7        29.86R VSB 1/2 WCI  30
RED OAK *      CLOUDY    34  34 100 N7        29.90R FOG     WCI  28
SHENANDOAH *   CLOUDY    34  34 100 N6        29.91R FOG     WCI  29
$$

IAZ047>049-059>061-072>074-084-170200-
   CENTRAL IOWA

CITY           SKY/WX    TMP DP  RH WIND       PRES   REMARKS
AMES           CLOUDY    33  33 100 NE5       29.90S FOG     WCI  29
ANKENY *       FOG       32  32 100 N7        29.90S VSB<1/4 WCI  26
BOONE *        FOG       32  32 100 NE8       29.88F VSB 1   WCI  25
CHARITON *     FOG       34  34 100 N6        29.86S VSB<1/4 WCI  29
DES MOINES     FOG       34  33  96 N5        29.89S VSB 1/2 WCI  30
GRINNELL*      FOG       33  33  99 NE5       29.88F VSB 1/4 WCI  28
KNOXVILLE *    FOG       34  34 100 CALM      29.86S VSB<1/4
MARSHALLTOWN   CLOUDY    33  33 100 NE6       29.89S FOG     WCI  28
NEWTON *       FOG       34  32  93 NE6       29.87F VSB 1/4 WCI  29
PELLA *        FOG       35  34  97 CALM      29.88F VSB 1/4
PERRY *        CLOUDY    33  33 100 N3        29.89F FOG
$$

IAZ004>006-015-016-023>025-035-036-170200-
   NORTH CENTRAL IOWA

CITY           SKY/WX    TMP DP  RH WIND       PRES   REMARKS
ALGONA *       CLOUDY    32  32 100 NE12      29.93F FOG     WCI  23
CLARION *      CLOUDY    32  32 100 NE10      29.92S FOG     WCI  24
ESTHERVILLE    FRZ RAIN  31  31 100 N13       29.95S FOG     WCI  21
FORT DODGE *   CLOUDY    32  30  93 CALM      29.93S
MASON CITY     FRZ RAIN  32  31  96 NE10      29.94S FOG     WCI  24
FOREST CITY *  CLOUDY    32  32 100 NE7       29.93F FOG     WCI  26
WEBSTER CITY * CLOUDY    34  34 100 NE7       29.89S FOG     WCI  28
IOWA FALLS *   CLOUDY    33  32  96 NE3       29.92S FOG
$$

IAZ007>011-017>019-026>030-037>042-050>054-066-170200-
   NORTHEAST IOWA

CITY           SKY/WX    TMP DP  RH WIND       PRES   REMARKS
CEDAR RAPIDS   FOG       34  34 100 E7        29.88F VSB 1/4 WCI  28
CHARLES CITY * CLOUDY    34  34 100 NE9       29.93F FOG     WCI  26
CLINTON *      LGT RAIN  36  35  96 E12       29.93F WCI  28
DECORAH *      CLOUDY    32  32 100 E7        29.93F FOG     WCI  26
DUBUQUE        CLOUDY    33  33 100 E9        29.92F FOG     WCI  25
MONTICELLO *   MIX PCPN  36  34  93 E8        29.91F WCI  29
OELWEIN *      CLOUDY    34  34 100 E9        29.91F FOG     WCI  26
WATERLOO       CLOUDY    33  32  96 E6        29.91F FOG     WCI  28
$$

IAZ064-065-067-068-078-170200-
   EAST CENTRAL IOWA

CITY           SKY/WX    TMP DP  RH WIND       PRES   REMARKS
DAVENPORT      CLOUDY    35  35 100 E9        29.91F FOG     WCI  28
IOWA CITY      CLOUDY    37  36  96 NE7       29.90F FOG     WCI  32
MUSCATINE *    CLOUDY    37  36  93 E3        29.90F FOG
QUAD CITIES    CLOUDY    37  35  92 E7        29.90F FOG     WCI  32
$$

IAZ062-063-075>077-085>089-095>099-170200-
   SOUTHEAST IOWA

CITY           SKY/WX    TMP DP  RH WIND       PRES   REMARKS
BURLINGTON     CLOUDY    39  39 100 E6        29.88F FOG     WCI  35
FAIRFIELD *    FOG       37  37 100 E6        29.87S VSB 1/4 WCI  33
FORT MADISON * FOG       39  37  93 E6        29.88F VSB 1/2 WCI  35
KEOKUK *       FOG       41  41 100 E7        29.87F VSB 1/4
OSKALOOSA *    LGT RAIN  35  35  99 E6        29.86F VSB 1/4 WCI  30
CENTERVILLE *  LGT RAIN  37  36  93 CALM      29.87S
OTTUMWA        MIX PCPN  36  36 100 E6        29.86S VSB 1/4 WCI  31
WASHINGTON *   FOG       36  36 100 E9        29.89F VSB 1/4 WCI  29
$$

ABBREVIATIONS USED IN REMARKS
   TC - TEMPERATURES IN CELSIUS
  WCI - WIND CHILL INDEX
   HX - HEAT INDEX
  VSB - VISIBILITY
$$





USA.gov is the U.S. government's official web portal to all federal, state and local government web resources and services.